Regional Weather Roundup
Issued by NWS

Home | Current Version | Previous Version | Text Only | Print | Product List | Glossary On
Versions: 1 2 3 4 5 6 7 8 9 10 11 12 13 14 15 16 17 18 19 20 21 22 23 24 25 26 27 28 29 30 31 32 33 34 35 36 37 38 39 40 41 42 43 44 45 46 47 48 49 50
232
ASUS45 KSLC 280410
RWRUT

UTAH REGIONAL WEATHER ROUNDUP
NATIONAL WEATHER SERVICE SALT LAKE CITY UT
1000 PM MDT WED JUL 27 2016

UTZ001>011-023>025-280500-

NORTHERN UTAH

CITY           SKY/WX    TMP DP  RH WIND       PRES   REMARKS
BRIGHAM CITY     N/A     81  42  24 CALM      30.04R
HILL AFB       CLEAR     82  33  17 E12       30.07S
LOGAN          CLEAR     80  41  24 VRB5      30.05S
OGDEN          CLEAR     81  37  20 S8        30.03S
PROVO AIRPORT  CLEAR     79  46  31 SE8       30.06R
SALT LAKE CITY CLEAR     89  30  12 S8        30.01S
VERNAL         CLEAR     80  30  16 N6        30.11R
WENDOVER       CLEAR     84  32  15 NW10      30.02S
HEBER CITY     CLEAR     64  39  39 CALM      30.16R

$$

UTZ012>022-026-027-280500-

SOUTHERN/CENTRAL UTAH

CITY           SKY/WX    TMP DP  RH WIND       PRES   REMARKS
BLANDING       CLEAR     76  33  21 N10       30.23R
BRYCE CANYON   PTCLDY    71  33  24 NE7       30.35R
CEDAR CITY     CLEAR     83  29  14 E9        30.14R
DELTA          CLEAR     81  30  16 NE8       30.06R
MILFORD        CLEAR     84  22  10 SE3       30.06S
MOAB/CYNLANDS  CLEAR     91  27  10 CALM      30.01R
PRICE          CLEAR     81  20  10 NE6       30.18R
ST GEORGE      CLEAR    102  37  10 SW8       29.87R HX  96

$$

REGIONAL REPORTS     COLORADO/ARIZONA

CITY           SKY/WX    TMP DP  RH WIND       PRES   REMARKS
CRAIG, CO      CLEAR     61  37  41 SE3       30.21R
GRAND JUNCTION CLEAR     80  25  13 NE5       30.05R
RIFLE          CLEAR     76  26  15 S9        30.14R
MONTROSE       CLEAR     77  41  27 SE9       30.17R
CORTEZ         CLEAR     70  44  39 NE7       30.16R
PAGE, AZ       CLEAR     94  32  11 S3        29.99R
GRAND CANYON   CLEAR     71  42  35 CALM      30.26R
KINGMAN        PTCLDY    85  58  39 N5        29.97R
FLAGSTAFF      PTCLDY    75  45  34 VRB5      30.28R

$$

REGIONAL REPORTS    NEVADA/IDAHO/WYOMING

CITY           SKY/WX    TMP DP  RH WIND       PRES   REMARKS
LAS VEGAS, NV  PTCLDY   104  43  12 SW7       29.78R HX  99
ELY            PTCLDY    73  22  14 S5        30.19R
ELKO           CLEAR     85  18   8 N3        30.10R
POCATELLO, ID  CLEAR     77  31  18 S9        30.05R
BURLEY         CLEAR     71  55  56 CALM      30.02R
EVANSTON, WY   CLEAR     76  24  14 CALM      30.31S
ROCK SPRINGS   CLEAR     76  16  10 W12       30.26R
KEMMERER         N/A    N/A N/A N/A N7        30.33R

$$




USA.gov is the U.S. government's official web portal to all federal, state and local government web resources and services.